Regional Weather Roundup
Issued by NWS

Home | Current Version | Previous Version | Graphics & Text | Print | Product List | Glossary On
Versions: 1 2 3 4 5 6 7 8 9 10 11 12 13 14 15 16 17 18 19 20 21 22 23 24 25 26 27 28 29 30 31 32 33 34 35 36 37 38 39 40 41 42 43 44 45 46 47 48 49 50
000
ASUS43 KOAX 300110
RWRNE

WEATHER ROUNDUP FOR NEBRASKA
NATIONAL WEATHER SERVICE OMAHA NE
800 PM CDT FRI MAY 29 2015

NOTES: SATELLITE DATA IS BEING USED TO AUGMENT CLOUD COVER ABOVE
       12000 FEET.
       "FAIR" INDICATES FEW OR NO CLOUDS BELOW 12,000 FEET WITH NO
       SIGNIFICANT WEATHER AND/OR OBSTRUCTIONS TO VISIBILITY.

  * THESE STATIONS DO NOT REPORT WEATHER SUCH AS RAIN...SNOW OR FOG.

NEZ001>004-019>022-054>056-300200-
NEBRASKA PANHANDLE

CITY           SKY/WX    TMP DP  RH WIND       PRES   REMARKS
SCOTTSBLUFF    CLOUDY    51  47  86 N8        30.29R
ALLIANCE       CLOUDY    48  45  89 N17       30.26R
CHADRON        CLOUDY    50  45  83 CALM      30.29S
KIMBALL          N/A    N/A N/A N/A MISG        N/A
SIDNEY         CLOUDY    50  45  83 N13       30.27R
$$

NEZ057>060-069>072-079>082-300200-
SOUTHWEST NEBRASKA

CITY           SKY/WX    TMP DP  RH WIND       PRES   REMARKS
NORTH PLATTE   PTSUNNY   52  47  83 N15G28    30.18R
IMPERIAL       CLOUDY    55  47  74 N22G28    30.20R
LEXINGTON      CLOUDY    55  50  84 N21G31    30.13R
MCCOOK         CLOUDY    57  49  74 N22       30.15R
OGALLALA       PTSUNNY   52  46  80 N16G24    30.22R
$$

NEZ005>010-023>029-035>040-094-300200-
NORTH CENTRAL NEBRASKA

CITY           SKY/WX    TMP DP  RH WIND       PRES   REMARKS
VALENTINE      CLOUDY    48  44  86 N10       30.24S
AINSWORTH      LGT RAIN  49  48  97 N18       30.22S
BROKEN BOW     CLOUDY    53  46  77 N32G46    30.14F
O`NEILL        CLOUDY    50  49  96 N21G26    30.17R
ORD            LGT RAIN  51  47  86 N22G31    30.13R
THEDFORD       RAIN      48  46  93 N17G25    30.21F
$$

NEZ041-046>049-061>064-073>077-083>087-300200-
SOUTH CENTRAL NEBRASKA

CITY           SKY/WX    TMP DP  RH WIND       PRES   REMARKS
GRAND ISLAND   CLOUDY    57  49  74 N24G36    30.10R
AURORA         CLOUDY    58  49  74 N30G39    30.08R
HASTINGS       CLOUDY    58  50  75 N23G35    30.08R
HEBRON         RAIN      64  55  71 NW18G35   30.00R
HOLDREGE       CLOUDY    56  52  85 N26       30.09R
KEARNEY *      CLOUDY    57  46  67 N24G30    30.11R
YORK           CLOUDY    57  54  88 N22G30    30.05R
$$

NEZ011>018-030>034-042>045-300200-
NORTHEAST NEBRASKA

CITY           SKY/WX    TMP DP  RH WIND       PRES   REMARKS
NORFOLK        LGT RAIN  53  51  93 NW28G36   30.07R
ALBION         DRIZZLE   52  48  86 N22G31    30.09R
BLAIR          CLOUDY    66  60  81 N20G26    29.95R
COLUMBUS *     CLOUDY    57  48  72 NW23G29   30.06R
FREMONT        CLOUDY    63  57  81 N10G25    30.00R
TEKAMAH        CLOUDY    63  57  81 N30G37    29.98R
WAYNE          LGT RAIN  54  52  94 N20G26    30.07R
$$

NEZ050>053-065>068-078-088>093-300200-
SOUTHEAST NEBRASKA

CITY           SKY/WX    TMP DP  RH WIND       PRES   REMARKS
LINCOLN        MOCLDY    67  59  75 N29G36    29.97R
OMAHA EPPLEY   CLOUDY    68  64  87 N15       29.92R
BEATRICE       MOCLDY    71  61  68 N18G30    29.93R
FALLS CITY     MOCLDY    72  66  81 S7        29.91R
NEBRASKA CITY  MOCLDY    72  59  64 SW6       29.90S
PLATTSMOUTH    CLOUDY    67  63  85 NW12      29.92R
$$

NEZ044-045-051>053-067-300200-
OMAHA AREA

CITY           SKY/WX    TMP DP  RH WIND       PRES   REMARKS
OMAHA EPPLEY   CLOUDY    68  64  87 N15       29.92R
BLAIR          CLOUDY    66  60  81 N20G26    29.95R
FREMONT        CLOUDY    63  57  81 N10G25    30.00R
MILLARD        CLOUDY    69  64  84 N8        29.94R
OFFUTT AFB     TSTM      66  63  88 NW12      29.92R FOG
PLATTSMOUTH    CLOUDY    67  63  85 NW12      29.92R
WAHOO          CLOUDY    64  57  80 NW22G32   29.97R
$$



USA.gov is the U.S. government's official web portal to all federal, state and local government web resources and services.